Location: Allaines
(49.9632°N, 2.9458°E)
Time: 17:05:48
(UTC+00:00)

STARLINK-1269 - Pass Details

Date: 09 April 2020
Orbit: 549 x 550 km, 53.0° (Epoch: 29 May)

Event Time Altitude Azimuth Distance (km) Brightness Sun altitude
Rises 19:23:08 0° 289° (WNW) 2,733 9.6 -8.4°
Reaches altitude 10° 19:25:23 10° 291° (WNW) 1,838 8.0 -8.8°
Maximum altitude 19:29:34 76° 17° (NNE) 577 3.7 -9.4°
Enters shadow 19:33:14 13° 103° (ESE) 1,634 5.4 -9.9°
